Weather in La Tuque

Canada     47°26′30″N   72°47′09″W
temp.,
°C
wind,
m/s
gust,
m/s
humid.,
%
clouds,
%
prec.,
mm/h
press.,
hPa
HPBL,
m
6 may, thu
thu623:00+5nw51097100 0.6 1007599
02:00+3nw51097100 1.6 1007812
05:00+2nw5129299 0.3 1009859
08:00+2nw5108388 0.3 1011896
11:00+2nw5878100 0.1 10131013
14:00+6nw584982 0.1 10121729
17:00+8nw584093 0.0 10122145
20:00+3n236150 0.0 101445
7 may, fri
fri723:00−1e11812 0.0 101610
02:00−1e11835 0.0 101610
05:00−2sse00845 0.0 101610
08:00+5ese00552 0.0 1017371
11:00+11nnw01365 0.0 10151570
14:00+13ene113396 0.0 10132279
17:00+13e123174 0.0 10122339
20:00+8e115595 0.0 101312
8 may, sat
sat823:00+3ese117333 0.0 101412
02:00+3e117899 0.0 101414
05:00+2ene1173100 0.0 101312
08:00+6se2859100 0.0 1015543
11:00+11e2244100 0.0 10121230
14:00+13n2337100 0.0 10101962
17:00+13nne4338100 0.0 10091917
20:00+8ne3860100 0.0 1010246
9 may, sun
sun923:00+5e1174100 0.0 101215
02:00+3wsw0084100 0.0 101210
05:00+2ese0088100 0.0 101210
08:00+6wnw0070100 0.0 1012367
11:00+12nw124877 0.0 10101326
14:00+9w5571100 0.1 1011981
17:00+10nw455939 0.1 10101243
20:00+6nw377099 0.1 1011249
10 may, mon
mon1023:00+3n1180100 0.0 101110
02:00+2nne118597 0.0 101010
05:000ne119053 0.0 100910
08:00+5nne2370100 0.0 1008367
11:00+10nne2348100 0.0 10061215
14:00+13n2237100 0.0 10052138
17:00+13n2235100 0.0 10042175
20:00+8ene006296 0.1 100510